User: anonymous   Login
Location: Lincolnton
(35.4660°N, 81.2500°W)
Time: 14:50:06
(UTC-05:00)
Language:

Hubble Space Telescope - Orbit

View from above orbital plane
View from above orbital plane
View from above satellite
View from above satellite

Ground track
Ground track

The orbit data is extracted from the following two-line orbital elements,

1 20580U 90037B   16337.33349726  .00000643  00000-0  28860-4 0  9992
2 20580  28.4735 228.1317 0002820 210.1105 149.9297 15.08610929260529
Epoch (UTC): 02 December 2016 08:00:14
Eccentricity: 0.0002820
inclination: 28.4735°
perigee height: 538 km
apogee height: 542 km
right ascension of ascending node: 228.1317°
argument of perigee: 210.1105°
revolutions per day: 15.08610929
mean anomaly at epoch: 149.9297°
orbit number at epoch: 26052

The dashed part of the orbit path shows where the satellite is in the earth's shadow,  

DLR